THORAD AGENA D DEB, 5422

Orbit data source: Space-Track

THORAD AGENA D DEB, 5422 is space debris in SSO originally from a launch on Wed, 08 Apr 1970 UTC launched from the Air Force Western Test Range (AFWTR). Debris objects in space refer to the collection of defunct objects orbiting the Earth. Examples of debris include non-operational satellites, rocket bodies, and fragments generated from explosions, collisions, or faulty payload assembly.

Loading next visibility...
Identifier
5422, 1970-025LA
Orbit
SSO
Country
Flag of USUS
Related business
Manufacturer
Unknown
Mission
Spacecraft
Bus & Motor
Unknown
Mass
Unknown
Launch date (UTC)
1970-04-08 (56 years ago)
Launch vehicle
Unknown
Launch site
Air Force Western Test Range (AFWTR)
Object type
Payload
Rocket body
Debris
Shape & HBR
Unknown shape, 0.1 m
Radar Cross Section
Small (<0.1 m²)

Expand to show TLE details & history
Last TLE update: 1 day ago

TLE from 1 day ago
0 THORAD AGENA D DEB
1 05422U 70025LA  25291.80035213  .00012556  00000-0  36108-2 0  9997
2 05422 100.0001  67.8075 0072507 347.4937  12.4447 14.43428457822105
Epoch: 2025-10-18T19:12Z
TLE epoch observation values (Epoch: 2025-10-18T19:12:30.424Z)
Latitude
0.00004°
Longitude
112.15456°
Altitude
699.653 km
Speed
7.533 km/s
True Right ascension
04h 31m 13s
True Declination
0° 00' 00"
Sunlit
Object was in full shadow at epoch
Visualization orbit readout
Latitude
Unknown
Longitude
Unknown
Altitude
Unknown
Speed
Unknown
Apparent Right ascension
Unknown
Apparent Declination
Unknown
Sunlit
N/A
Visualization observer readout
Local Sidereal Time
18:28:15
Azimuth
Unknown
Elevation
Unknown
Doppler factor
Unknown
Orbital elements
Apogee altitude
796.031 km
Perigee altitude
692.744 km
Semi-major axis
7,122.524 km
Eccentricity
0.00725
Inclination
100.0001°
RAAN
67.8075°
Arg. of periapsis
347.4937°
True anomaly
12.62535°
Mean anomaly
12.4447°
Eccentric anomaly
12.53486°
Mean motion
3.61071 °/min
Orbital period
99.7 mins
BSTAR
0.0036108
Loading maneuver chart data...
Computing Atmospheric mass density...

Documentation

Showing up to 5 results
|